Temp
14 14 16 15 15 15 15 15 16 16 17 17 18 18 19 20 22 25 28 24 23 24 24 28 29 31 31 33 33 34 34 36 37 36 34 33 34 35 34 34 34 35 34 32 31
14 14 14 15 15 15 15 15 15 16 16 17 17 18 19 20 21 27 23 23 23 23 27 29 31 31 33 33 33 34 35 36 35 34 34 33 33 33 33 34 34 34 34 31 30
13 14 14 14 15 15 15 15 15 15 16 16 17 18 19 20 25 28 22 22 22 22 26 27 29 31 33 33 33 34 33 33 33 32 33 33 33 34 33 33 34 33 33 33 33
13 13 14 14 14 15 15 15 15 15 16 16 17 17 19 20 26 25 22 22 22 23 26 28 30 30 31 32 32 30 32 32 33 31 31 32 33 33 33 33 34 33 32 33 33
14 13 14 14 14 14 15 15 15 15 15 16 16 17 19 24 27 22 22 22 23 25 27 29 29 30 30 31 31 30 33 31 32 31 31 31 31 32 32 34 33 32 32 33 33
14 14 14 14 14 14 14 14 14 14 15 15 16 17 20 23 24 22 22 23 25 26 27 28 29 29 30 29 29 29 30 31 32 32 32 30 31 31 33 32 32 32 32 32 32
13 14 14 14 14 14 14 14 14 14 14 14 15 16 21 24 23 23 21 24 24 25 27 26 26 28 28 29 29 29 29 32 32 32 32 30 31 31 33 32 32 32 32 31 32
13 13 14 14 14 14 14 13 13 13 13 14 15 17 21 22 23 22 23 23 22 23 24 24 25 27 27 28 28 29 31 31 34 32 31 30 32 34 32 31 32 32 32 31 31
12 12 13 14 14 13 13 13 12 12 13 14 15 18 22 20 21 22 22 24 24 23 23 23 25 26 27 27 30 30 31 32 32 32 32 31 31 34 33 32 31 31 31 30 30
11 12 12 13 13 13 12 12 11 12 12 15 17 18 21 23 24 22 23 23 24 23 23 23 25 26 27 28 29 32 32 32 31 32 30 30 31 32 33 32 30 30 30 29 29
10 11 12 12 13 12 11 11 13 14 15 19 21 22 22 21 20 22 22 23 24 24 24 25 25 26 28 29 30 30 30 30 32 33 29 28 30 31 32 31 30 29 29 29 28
10 11 11 12 12 12 12 16 18 21 15 16 20 20 20 21 22 23 22 23 23 24 26 24 24 28 29 29 28 28 28 29 30 31 28 28 29 31 31 31 30 29 29 29 29
10 10 11 11 11 11 13 16 18 18 20 19 19 19 21 20 22 23 23 25 24 25 26 26 28 28 28 26 26 27 27 28 29 29 28 28 28 30 31 29 28 28 29 28 28
10 10 10 11 11 11 12 15 17 17 18 21 18 19 21 21 21 25 23 25 25 25 26 25 28 26 27 26 27 27 29 27 27 27 27 30 28 30 29 28 28 28 28 28 27
11 10 10 10 12 11 12 15 15 15 14 22 21 22 22 21 25 23 24 24 24 24 26 25 25 25 25 26 27 26 27 26 26 26 27 28 27 30 30 28 28 28 27 27 26
10 10 10 10 11 12 12 13 12 12 12 22 21 20 20 20 23 25 23 24 24 24 24 26 26 25 26 26 26 26 25 25 26 26 25 27 28 29 31 30 29 28 27 26 26
10 10 10 10 11 11 11 10 9 11 16 18 18 19 21 20 21 23 21 21 21 21 22 23 23 24 25 24 24 25 24 24 24 24 24 29 28 28 29 30 29 27 26 26 25
9 9 9 10 11 10 10 10 11 13 16 20 19 19 20 21 21 22 21 20 21 23 24 23 22 24 24 25 24 24 25 25 24 25 27 29 25 28 30 29 28 27 26 25 25
9 8 8 10 10 10 10 10 12 16 18 19 19 18 19 22 22 22 21 21 22 23 22 24 24 28 26 25 26 25 24 26 25 26 23 27 28 26 27 27 27 26 25 25 25
8 8 8 9 10 10 11 11 13 18 20 20 18 18 18 21 21 22 21 23 23 24 25 24 24 25 25 25 25 25 26 23 24 21 22 26 27 28 25 25 25 25 25 25 25
7 8 9 8 10 11 11 10 12 17 20 18 20 19 20 20 21 21 21 23 24 24 24 24 24 21 24 22 23 23 24 24 25 24 24 24 27 29 26 26 25 25 25 25 25
8 7 9 9 11 9 11 9 14 17 16 19 21 21 22 21 20 20 21 23 24 25 23 24 22 21 22 24 25 25 24 24 23 23 23 24 26 27 28 27 26 26 26 26 25
7 7 9 9 11 8 8 11 15 17 16 16 18 20 22 21 20 21 22 23 24 24 23 23 20 20 21 22 23 23 24 24 24 24 23 22 24 28 27 27 27 27 27 26 25
7 7 8 7 9 11 8 10 13 18 18 16 18 20 21 20 21 21 21 21 22 24 20 22 23 22 21 23 24 22 24 24 24 22 22 24 25 27 25 26 27 27 27 26 26
6 7 9 7 7 9 11 12 13 14 18 18 17 19 18 19 19 20 21 20 20 20 21 22 21 22 24 25 24 24 23 24 24 24 22 24 25 26 27 26 26 27 26 26 25
5 6 8 9 10 7 10 14 14 14 15 15 15 17 19 20 19 18 19 19 19 20 20 21 19 20 21 23 24 23 25 24 24 25 25 25 25 27 28 28 28 26 26 25 25
7 7 8 8 10 8 9 12 16 17 15 17 17 18 19 21 22 20 17 18 18 17 18 18 18 18 19 21 21 18 22 24 24 25 24 23 25 26 26 26 27 26 25 25 25
Height
791 794 796 799 802 804 807 808 808 807 807 808 807 806 803 800 796 792 787 790 791 789 787 783 780 777 775 769 769 763 772 764 755 762 767 765 767 759 762 765 762 760 762 768 772
785 790 792 794 798 800 804 805 806 806 806 807 806 805 803 800 795 788 789 790 790 789 786 782 776 774 768 767 766 768 765 759 755 760 764 766 770 766 768 764 765 762 761 768 772
780 784 788 790 794 797 800 803 804 805 805 806 806 804 802 800 792 780 787 789 789 789 788 785 781 774 770 767 765 761 772 764 764 767 766 767 768 761 768 773 763 769 767 765 766
774 779 782 786 790 793 796 800 802 804 804 804 804 803 801 800 795 784 787 789 789 789 788 783 778 776 775 774 769 781 768 769 765 772 772 772 765 769 766 766 760 765 765 764 761
768 773 777 780 785 789 793 796 800 802 802 803 803 803 801 793 785 785 788 789 789 789 785 781 778 774 779 773 773 779 765 769 767 771 771 769 772 770 766 758 763 765 765 762 761
761 767 772 775 780 785 790 793 797 800 802 802 803 803 801 797 786 786 788 789 788 787 785 782 779 778 776 778 779 775 774 769 765 766 764 773 768 770 758 759 761 762 763 762 761
756 761 766 769 776 781 786 791 795 799 801 802 802 802 798 787 785 786 787 787 788 787 784 786 785 782 779 780 775 775 782 762 761 760 765 767 771 765 754 759 758 756 759 762 761
747 755 760 764 771 777 784 788 794 798 800 802 802 803 791 781 783 785 786 787 788 790 790 789 788 783 782 776 777 779 770 776 748 759 762 770 768 746 752 759 759 754 757 760 759
741 747 753 759 766 774 781 788 793 796 799 802 802 800 785 778 780 780 783 783 786 790 791 792 789 784 783 787 777 770 775 762 757 755 759 766 765 744 744 754 758 757 756 759 761
741 742 746 756 762 770 778 788 792 797 799 802 799 800 779 771 771 775 778 782 784 787 790 792 787 786 781 779 782 762 762 758 767 754 765 766 761 749 745 749 757 758 758 760 762
734 739 741 747 756 763 774 785 794 796 791 775 770 769 766 770 773 773 777 778 778 780 785 784 788 781 769 764 762 765 770 766 753 745 764 773 761 749 745 749 755 757 759 760 761
732 732 738 739 748 756 764 760 762 762 780 779 770 772 772 769 769 766 775 774 775 777 774 785 785 763 759 761 767 772 774 769 757 751 768 768 761 746 743 747 751 756 757 756 757
726 729 731 734 738 751 752 754 762 766 760 758 762 764 766 771 761 760 766 764 769 770 765 771 759 755 761 771 776 771 771 767 767 759 764 766 763 745 738 749 754 756 754 756 759
720 722 726 731 734 741 748 758 762 766 767 746 755 754 758 763 760 750 757 759 762 762 759 766 748 761 762 770 768 771 753 766 770 773 777 746 774 741 744 755 755 755 753 756 759
711 716 720 723 730 730 741 757 760 765 780 725 732 735 739 748 733 747 750 754 758 760 757 761 761 765 766 763 758 768 759 770 770 772 769 759 770 745 731 750 753 753 754 758 759
703 710 717 720 728 728 741 750 759 773 768 712 715 729 734 740 735 733 747 751 755 758 755 750 747 755 756 755 757 760 773 771 770 771 782 763 762 747 729 735 740 749 755 759 760
699 707 710 711 717 722 733 748 769 753 738 722 723 723 722 733 738 733 746 752 753 770 764 759 757 755 753 763 764 766 774 785 787 782 778 741 747 744 730 727 732 749 755 758 760
696 702 704 705 709 719 727 742 738 728 725 701 714 721 722 720 729 729 741 748 746 739 742 758 763 749 751 752 757 760 760 766 780 774 757 734 759 739 718 724 730 743 752 756 759
694 698 703 702 706 706 720 723 713 706 705 703 709 715 718 711 713 723 725 730 728 729 743 735 738 718 733 746 742 752 761 749 760 756 780 742 733 735 731 736 738 746 752 756 758
690 695 696 699 699 698 705 708 706 688 680 691 705 709 712 705 713 713 722 708 713 717 719 724 737 728 731 740 741 740 742 771 762 787 783 747 735 729 735 740 741 746 750 751 754
689 691 684 691 695 685 682 699 701 688 677 690 684 697 698 700 699 703 702 694 695 701 713 721 726 746 729 744 741 747 749 750 750 754 761 755 729 700 720 726 735 740 744 745 749
682 683 678 683 672 675 674 691 683 681 686 681 675 679 678 689 695 703 696 693 680 690 709 713 730 740 735 726 725 727 739 743 753 757 747 747 729 709 710 717 725 731 736 738 744
674 676 673 675 654 677 687 681 665 676 683 690 683 678 669 679 695 687 689 681 683 689 701 711 728 742 740 740 729 730 732 730 735 739 739 754 733 702 712 712 718 724 728 735 740
670 669 672 668 654 660 678 673 667 661 669 682 677 674 673 682 675 683 684 689 686 688 700 704 706 712 724 720 717 733 725 723 728 744 741 721 724 711 721 718 716 718 722 728 734
662 656 653 662 660 655 658 658 660 662 660 667 677 670 677 680 684 682 683 690 693 694 700 701 711 706 702 697 706 708 720 717 717 716 736 718 719 707 708 711 712 712 717 722 729
655 655 657 653 647 662 652 639 644 652 659 667 680 678 668 665 669 682 684 690 694 695 701 699 716 715 717 707 704 715 702 707 711 711 710 709 707 697 696 696 700 708 713 718 724
650 655 655 648 640 650 647 635 628 635 648 647 660 666 665 660 661 672 684 689 691 704 704 710 714 724 723 712 719 734 707 705 703 699 706 713 698 695 696 699 699 706 711 715 718
Wind_Speed
32 31 28 26 24 21 18 15 13 11 9 9 11 13 15 17 16 10 11 3 2 6 8 10 8 5 9 6 7 6 9 10 8 3 9 4 3 8 2 6 4 1 4 7 2
34 33 31 29 26 23 20 17 15 12 10 10 11 12 14 16 16 14 2 4 1 6 8 7 3 6 9 6 4 9 9 7 10 6 3 2 2 4 5 5 7 4 2 4 5
35 35 33 31 29 25 22 19 16 14 11 10 11 11 13 13 15 2 7 5 1 6 9 8 8 8 9 5 4 2 10 9 5 4 4 4 6 5 8 10 3 7 9 7 9
36 36 35 33 30 28 24 21 18 15 12 10 10 11 11 9 4 5 7 5 3 6 9 7 6 8 7 7 2 6 2 3 2 2 5 7 9 10 9 10 4 6 5 9 9
39 37 36 34 32 29 26 23 19 16 12 10 8 8 7 9 12 5 3 4 5 5 5 5 8 5 9 3 7 10 7 3 5 7 9 10 12 11 12 8 3 3 6 7 8
41 40 37 35 33 31 27 24 20 17 12 9 7 6 10 14 1 3 3 4 5 6 3 4 2 4 4 7 7 4 7 10 8 10 9 9 11 4 7 3 8 4 5 5 6
44 41 40 36 34 31 28 24 21 16 12 9 6 5 11 15 1 4 3 4 3 2 3 2 4 7 2 4 2 7 11 10 13 11 8 4 14 17 8 5 8 7 3 5 4
44 44 41 38 35 32 29 25 20 16 11 9 6 7 9 3 12 14 9 8 6 3 2 2 4 7 8 2 6 9 9 11 8 8 8 5 11 10 9 3 10 5 6 5 4
27 44 43 40 37 33 28 24 19 15 12 8 5 10 12 7 13 19 16 14 13 8 6 4 5 6 4 12 11 11 11 14 10 10 6 9 10 1 8 8 8 10 7 3 5
20 32 43 43 40 34 28 23 17 13 10 7 7 5 10 9 12 9 18 17 11 12 8 10 7 8 10 13 12 12 13 10 9 6 8 12 16 13 13 8 7 8 5 4 2
27 21 43 45 41 38 35 22 10 7 21 15 10 14 3 7 6 11 16 19 13 14 14 16 10 14 19 16 17 14 14 16 16 11 5 15 19 15 9 9 11 7 4 3 3
26 23 27 44 43 43 42 20 28 5 10 27 20 17 4 7 9 12 18 15 16 17 17 10 19 17 15 8 13 13 15 16 16 15 6 16 19 15 11 10 6 8 7 4 4
26 27 22 43 46 45 43 40 19 5 7 16 31 21 18 13 13 20 21 17 18 21 22 18 8 20 14 13 13 14 16 16 16 6 13 18 19 24 11 7 8 7 4 5 4
26 28 20 31 39 42 38 37 10 12 6 15 15 19 26 11 11 19 28 16 13 20 18 16 15 11 14 17 12 16 13 13 15 11 11 2 12 5 15 13 13 10 9 7 9
29 26 28 27 12 28 34 34 17 5 7 11 23 11 21 23 12 22 29 21 17 13 18 12 13 14 17 16 14 11 4 8 12 14 15 18 9 16 18 17 15 12 10 9 7
30 25 27 23 23 34 42 35 5 6 11 9 16 20 24 28 24 17 24 19 14 16 16 19 6 13 15 11 11 3 7 8 9 10 14 17 16 12 15 15 15 14 12 10 10
29 26 32 23 9 38 49 17 5 8 3 10 17 22 27 19 28 20 27 27 16 17 23 18 19 12 11 13 12 13 11 6 8 10 12 12 13 16 7 6 18 16 13 11 11
30 27 24 33 27 52 33 10 7 15 24 13 16 19 26 22 28 27 25 24 28 23 12 17 14 24 17 20 13 21 19 9 12 12 14 10 8 11 1 12 14 16 14 14 13
27 24 21 26 43 52 14 15 12 16 29 13 21 23 22 28 14 26 30 28 29 30 18 17 17 14 16 22 21 18 21 18 18 8 6 10 9 8 7 12 15 17 16 15 14
24 15 25 26 48 34 18 16 12 21 23 22 16 18 25 29 20 27 23 26 29 34 26 18 14 11 19 15 22 25 13 14 11 11 18 13 19 15 18 17 18 19 18 17 16
21 7 13 32 42 13 18 13 10 20 15 23 21 20 23 26 25 29 17 15 33 31 30 20 16 9 19 16 19 17 17 14 14 14 9 15 14 11 20 20 21 20 19 18 17
11 8 15 33 14 4 20 13 14 22 17 17 14 20 23 25 27 24 23 25 21 26 33 27 11 14 19 18 19 21 19 21 10 19 19 15 17 6 4 16 18 20 20 18 17
8 6 18 28 15 7 4 10 24 25 23 18 14 24 17 21 17 20 23 17 12 23 25 23 7 10 10 9 11 19 21 21 21 11 19 12 6 5 5 11 17 18 18 18 18
6 5 6 5 8 17 10 13 18 28 28 21 18 20 17 17 16 20 15 16 14 22 14 21 15 19 13 14 13 23 22 26 22 17 17 22 17 13 10 12 13 15 16 19 18
6 5 4 7 11 15 23 23 26 15 20 23 18 23 19 17 20 16 18 12 9 17 14 18 13 20 18 14 5 14 23 25 28 28 19 26 25 22 16 17 16 16 17 18 18
4 2 6 5 15 8 23 27 31 21 19 27 11 22 24 17 15 15 20 12 14 16 17 14 7 8 15 16 14 15 19 23 23 27 27 28 30 21 17 16 15 15 16 18 20
11 6 3 7 10 11 8 18 36 28 25 30 28 25 23 25 20 14 7 7 8 12 13 10 7 6 9 14 14 13 24 22 22 22 23 23 27 21 20 19 19 14 15 19 20
Wind_Direction
225 226 223 223 225 229 234 239 246 255 273 291 306 316 322 324 320 285 264 48 354 334 329 286 249 262 232 239 253 261 258 252 234 222 99 98 283 96 326 284 300 354 348 31 9
224 225 224 222 224 225 230 234 243 251 264 283 298 311 320 326 310 273 188 196 327 350 337 326 307 284 225 235 225 247 260 354 35 34 75 163 233 337 287 252 294 246 112 182 271
227 224 224 222 222 223 225 230 236 245 257 276 295 308 317 323 283 165 171 188 326 332 308 298 282 276 254 243 198 241 267 29 89 26 326 308 276 290 278 284 271 322 307 303 287
228 226 223 222 221 221 222 226 231 240 250 265 288 305 312 303 266 94 171 207 300 326 297 284 258 250 264 230 237 258 213 277 39 192 276 278 302 290 282 278 323 278 307 288 289
227 226 223 222 220 219 219 221 226 233 241 258 278 308 313 238 260 147 185 283 277 283 286 273 259 252 241 241 247 243 268 247 249 247 255 274 266 271 268 259 209 269 277 297 311
228 225 224 221 219 218 217 217 221 225 233 245 267 295 264 255 91 169 209 253 247 229 204 245 331 308 297 256 258 27 289 272 255 254 250 248 268 228 203 165 244 189 282 303 314
229 227 223 220 219 216 213 213 215 218 220 227 242 277 262 244 107 208 184 200 177 217 174 25 326 278 5 252 279 273 274 253 234 238 230 251 248 217 219 212 244 214 183 298 312
230 228 224 219 217 213 210 207 208 207 208 214 218 252 257 257 236 234 210 198 199 209 311 275 304 281 253 341 240 256 247 267 115 182 168 223 282 164 164 206 271 278 273 267 283
231 231 225 218 213 209 203 199 197 193 194 196 225 235 251 177 225 227 215 220 210 226 246 248 244 251 222 235 238 210 262 233 193 190 253 213 284 299 186 242 268 274 276 305 287
253 229 227 219 210 200 191 182 175 171 178 201 242 230 233 227 201 201 204 205 185 194 199 214 222 220 216 233 236 255 227 224 255 171 219 262 256 261 259 263 250 273 268 244 263
248 245 225 218 207 191 168 142 158 211 202 200 193 214 339 145 159 199 189 190 197 193 203 202 214 216 226 225 260 297 277 277 282 272 283 266 265 262 252 239 233 229 226 193 193
241 240 231 220 203 189 174 190 188 284 198 231 252 233 185 210 190 188 182 185 187 201 202 182 230 228 235 262 238 244 258 264 270 268 296 266 267 260 236 224 219 214 196 188 141
228 229 233 216 196 184 189 194 192 188 244 184 219 213 211 209 213 188 189 207 199 204 198 207 228 213 230 218 228 238 255 265 270 248 228 258 272 247 212 181 194 201 174 141 111
225 225 233 209 175 181 196 193 211 180 254 209 197 225 216 212 230 210 196 197 206 214 196 232 243 205 203 226 220 252 248 255 267 255 263 88 268 152 150 185 196 183 171 142 130
223 224 213 196 197 185 179 188 174 182 221 208 183 178 193 197 144 199 188 206 217 208 196 207 221 203 216 222 227 258 296 248 253 252 262 257 244 271 171 186 193 183 164 146 131
217 224 217 201 216 191 172 173 113 141 224 187 144 183 176 200 221 169 183 207 221 214 214 229 193 209 230 235 229 235 221 233 246 252 250 250 254 249 207 205 169 170 168 154 144
215 215 214 197 194 173 156 133 132 195 201 199 178 187 186 184 206 184 186 194 188 198 218 214 230 216 228 196 201 196 200 215 230 221 242 260 230 233 106 173 162 172 166 157 151
215 212 218 201 179 160 156 152 188 193 198 156 178 183 194 175 203 186 188 199 212 211 201 210 212 206 196 213 195 201 203 217 224 246 261 198 227 243 310 151 156 168 164 161 158
210 201 219 209 170 156 165 188 189 192 202 176 169 182 193 194 188 189 205 206 204 209 212 206 225 199 200 213 222 195 224 235 267 261 271 256 195 181 162 159 167 170 174 174 169
200 194 223 229 180 167 178 196 208 218 186 178 172 183 189 191 196 194 198 222 215 207 218 238 232 193 180 202 226 237 203 219 229 238 237 244 248 261 172 177 184 188 186 182 179
195 203 220 225 185 185 193 189 205 214 238 179 190 188 197 191 200 193 202 208 208 205 209 220 223 191 196 203 198 203 220 219 221 227 236 251 257 330 164 192 195 198 197 190 186
193 206 197 200 201 184 192 170 203 193 216 205 201 203 190 189 197 190 218 205 199 198 197 202 207 191 206 199 227 206 208 210 213 217 232 260 263 117 194 190 195 199 197 196 194
202 204 230 215 203 194 187 200 185 194 196 213 212 210 217 191 192 196 207 197 194 188 195 186 219 180 198 182 212 225 214 219 220 241 243 222 233 90 177 183 195 205 199 204 199
186 193 216 246 225 179 168 188 190 200 197 200 222 208 218 200 209 199 184 180 195 196 181 186 198 199 194 201 201 210 220 215 215 225 238 243 251 210 196 207 210 209 209 206 205
185 193 239 203 245 231 199 174 189 184 208 187 217 215 185 186 190 206 165 152 197 176 176 198 225 207 209 229 233 197 217 223 222 226 225 246 247 249 225 210 221 217 220 216 216
170 168 190 259 189 242 192 200 187 171 175 191 193 211 196 194 177 187 181 170 173 176 192 214 198 214 225 244 243 245 223 221 230 236 239 248 254 259 266 271 264 221 221 219 215
209 216 180 288 214 190 206 206 199 191 187 183 192 197 205 210 201 191 80 72 137 167 188 187 206 172 235 229 245 251 233 235 237 233 235 241 254 265 261 256 254 221 239 229 222